Tracking 29494 objects as of 8-Sep-2024
HD Live streaming from Space Station
objects crossing your sky now

FENGYUN 1C DEB

Track FENGYUN 1C DEB now!
10-day predictions


NORAD ID: 31768
Int'l Code: 1999-025CFT
Perigee: 685.1 km
Apogee: 736.5 km
Inclination: 99.1 °
Period: 98.8 minutes
Semi major axis: 7081 km
RCS: 0.011 m2 (small)
Launch date: May 10, 1999
Source: People's Republic of China (PRC)
Launch site: Taiyaun Space Center, China (TSC)

Note: This is SATELLITE DEBRIS
Your satellite tracking list
Your tracking list is empty




NASA's NSSDC Master Catalog

Two Line Element Set (TLE):
1 31768U 99025CFT 24244.82472689  .00031557  00000-0  69718-2 0  9996
2 31768  99.0834 262.5495 0036300 345.3971 190.5500 14.56768234900114
Source of the keplerian elements: AFSPC